TimeEST,TemperatureF,Dew PointF,Humidity,Sea Level PressureIn,VisibilityMPH,Wind Direction,Wind SpeedMPH,Gust SpeedMPH,PrecipitationIn,Events,Conditions,WindDirDegrees,DateUTC
12:02 AM,51.8,50.0,94,30.05,2.5,NE,4.6,-,0.03,Rain,Rain,40,2013-01-16 05:02:00
12:17 AM,51.8,50.0,94,30.05,2.5,NE,5.8,-,0.06,Rain,Rain,40,2013-01-16 05:17:00
12:24 AM,51.8,50.0,94,30.04,3.0,NE,4.6,-,0.07,Rain,Light Rain,40,2013-01-16 05:24:00
12:31 AM,51.8,51.8,100,30.04,2.5,Calm,Calm,-,0.08,Rain,Light Rain,0,2013-01-16 05:31:00
12:47 AM,51.8,50.0,94,30.03,4.0,NNE,6.9,-,0.09,Rain,Light Rain,30,2013-01-16 05:47:00
12:56 AM,51.1,50.0,96,30.02,5.0,ENE,4.6,-,0.09,Rain,Light Rain,60,2013-01-16 05:56:00
1:56 AM,51.1,50.0,96,30.01,9.0,NE,5.8,-,0.00,,Overcast,40,2013-01-16 06:56:00
3:56 AM,48.9,48.0,97,30.01,10.0,North,4.6,-,0.01,Rain,Light Rain,10,2013-01-16 08:56:00
4:56 AM,48.0,46.9,96,30.00,7.0,NE,4.6,-,0.00,,Overcast,40,2013-01-16 09:56:00
5:56 AM,48.0,46.9,96,29.99,4.0,ENE,3.5,-,0.02,Rain,Light Rain,70,2013-01-16 10:56:00
7:56 AM,48.0,46.9,96,30.01,5.0,Calm,Calm,-,N/A,,Overcast,0,2013-01-16 12:56:00
8:07 AM,48.2,46.4,93,30.01,1.8,ENE,3.5,-,0.01,Rain,Light Rain,60,2013-01-16 13:07:00
8:16 AM,48.2,46.4,93,30.01,1.0,Calm,Calm,-,0.02,Rain,Light Rain,0,2013-01-16 13:16:00
8:26 AM,48.2,46.4,93,30.02,1.8,Calm,Calm,-,0.02,Rain,Light Rain,0,2013-01-16 13:26:00
8:29 AM,48.2,46.4,93,30.02,2.0,NE,3.5,-,0.02,Rain,Light Rain,40,2013-01-16 13:29:00
8:41 AM,48.2,46.4,93,30.02,4.0,Calm,Calm,-,0.03,Rain,Light Rain,0,2013-01-16 13:41:00
8:56 AM,48.9,48.0,97,30.03,4.0,Calm,Calm,-,0.03,Rain,Light Rain,0,2013-01-16 13:56:00
9:07 AM,48.2,48.2,100,30.04,2.5,Calm,Calm,-,0.01,Rain,Rain,0,2013-01-16 14:07:00
9:16 AM,48.2,48.2,100,30.04,2.5,Calm,Calm,-,0.02,Rain,Light Rain,0,2013-01-16 14:16:00
9:29 AM,48.2,48.2,100,30.04,2.5,Calm,Calm,-,0.04,Rain,Rain,0,2013-01-16 14:29:00
9:41 AM,48.2,48.2,100,30.04,2.5,NNW,4.6,-,0.07,Rain,Rain,340,2013-01-16 14:41:00
9:56 AM,48.9,48.9,100,30.04,1.5,North,4.6,-,0.13,Rain,Heavy Rain,10,2013-01-16 14:56:00
10:09 AM,48.2,48.2,100,30.04,2.0,North,4.6,-,0.03,Rain,Light Rain,10,2013-01-16 15:09:00
10:17 AM,48.2,48.2,100,30.04,2.0,North,5.8,-,0.04,Rain,Light Rain,360,2013-01-16 15:17:00
10:35 AM,50.0,48.2,94,30.04,3.0,NNE,3.5,-,0.05,Rain,Light Rain,20,2013-01-16 15:35:00
10:56 AM,50.0,48.9,96,30.03,3.0,North,4.6,-,0.06,Rain,Light Rain,10,2013-01-16 15:56:00
11:56 AM,50.0,48.9,96,30.01,10.0,Calm,Calm,-,0.01,Rain,Light Rain,0,2013-01-16 16:56:00
12:56 PM,52.0,51.1,97,29.99,3.0,Calm,Calm,-,0.01,Rain,Light Rain,0,2013-01-16 17:56:00
1:56 PM,53.1,52.0,96,29.99,9.0,NNE,4.6,-,0.01,,Overcast,20,2013-01-16 18:56:00
2:43 PM,53.6,53.6,100,29.98,10.0,North,5.8,-,0.00,,Overcast,350,2013-01-16 19:43:00
2:56 PM,53.1,52.0,96,29.98,9.0,NNE,6.9,-,0.00,,Overcast,20,2013-01-16 19:56:00
3:46 PM,53.6,51.8,94,29.99,2.5,NNE,4.6,-,0.01,Rain,Light Rain,20,2013-01-16 20:46:00
3:54 PM,53.6,51.8,94,29.99,5.0,NNE,4.6,-,0.01,Rain,Light Rain,30,2013-01-16 20:54:00
3:56 PM,53.1,52.0,96,29.99,6.0,NNE,4.6,-,0.01,Rain,Light Rain,20,2013-01-16 20:56:00
4:54 PM,51.8,51.8,100,30.00,1.2,North,6.9,-,0.00,Rain,Light Rain,360,2013-01-16 21:54:00
4:56 PM,52.0,52.0,100,30.00,1.2,NNE,6.9,-,0.00,Rain,Light Rain,20,2013-01-16 21:56:00
5:09 PM,51.8,51.8,100,30.00,3.0,North,5.8,-,0.01,Rain,Light Rain,350,2013-01-16 22:09:00
5:47 PM,51.8,51.8,100,30.00,5.0,NNE,3.5,-,0.02,Rain,Light Rain,30,2013-01-16 22:47:00
5:56 PM,52.0,52.0,100,30.00,4.0,Calm,Calm,-,0.02,Rain,Light Rain,0,2013-01-16 22:56:00
6:09 PM,51.8,51.8,100,29.99,10.0,East,3.5,-,0.00,,Overcast,100,2013-01-16 23:09:00
6:23 PM,51.8,51.8,100,29.99,10.0,Calm,Calm,-,0.00,,Overcast,0,2013-01-16 23:23:00
6:56 PM,53.1,52.0,96,30.00,10.0,Calm,Calm,-,0.00,,Overcast,0,2013-01-16 23:56:00
7:56 PM,53.1,52.0,96,30.01,8.0,Calm,Calm,-,0.01,Rain,Light Rain,0,2013-01-17 00:56:00
8:06 PM,53.6,51.8,94,30.01,9.0,NNW,3.5,-,0.00,Rain,Light Rain,340,2013-01-17 01:06:00
8:56 PM,53.1,52.0,96,30.01,6.0,Calm,Calm,-,0.01,Rain,Light Rain,0,2013-01-17 01:56:00
9:15 PM,53.6,51.8,94,30.01,4.0,Calm,Calm,-,0.01,Rain,Rain,0,2013-01-17 02:15:00
9:46 PM,53.6,51.8,94,30.01,4.0,Calm,Calm,-,0.06,Rain,Light Rain,0,2013-01-17 02:46:00
9:56 PM,53.1,52.0,96,30.00,2.0,Calm,Calm,-,0.13,Rain,Heavy Rain,0,2013-01-17 02:56:00
10:02 PM,53.6,51.8,94,30.00,3.0,Calm,Calm,-,0.01,Rain,Rain,0,2013-01-17 03:02:00
10:10 PM,53.6,51.8,94,30.00,5.0,Calm,Calm,-,0.01,Rain,Light Rain,0,2013-01-17 03:10:00
10:36 PM,53.6,51.8,94,30.00,3.0,North,3.5,-,0.07,Rain,Rain,10,2013-01-17 03:36:00
10:46 PM,53.6,51.8,94,29.99,3.0,North,3.5,-,0.09,Rain,Rain,360,2013-01-17 03:46:00
10:56 PM,53.1,52.0,96,29.99,4.0,North,3.5,-,0.11,Rain,Rain,350,2013-01-17 03:56:00
11:15 PM,51.8,51.8,100,29.99,3.0,North,3.5,-,0.02,Rain,Rain,360,2013-01-17 04:15:00
11:40 PM,51.8,51.8,100,29.98,9.0,North,3.5,-,0.04,Rain,Light Rain,10,2013-01-17 04:40:00
11:56 PM,52.0,51.1,97,29.99,10.0,North,3.5,-,0.04,Rain,Light Rain,360,2013-01-17 04:56:00